Wetterdaten: Donnerstag, 13.09.2012
Datum Zeit Temp. A. Temp. A. min Temp. A. max Feuchte A. Luftdruck Regen Wind Richtung Richtung Sonnenschein ET Solar Taupunkt Windchill Windben Empfang
13.09.2012 00:00 5,6 C 0,0 C 0,0 C 87 % 1013,5 hPa 0,0 l/m 0,0 km/h (0 Bft) N-NW 345 0 min 0,000 mm 0 W/m 3,6 C 5,6 C 0,0 km/h (0 Bft) 0,00 %
13.09.2012 00:05 5,6 C 0,0 C 0,0 C 87 % 1013,5 hPa 0,0 l/m 0,0 km/h (0 Bft) N-NW 330 0 min 0,000 mm 0 W/m 3,6 C 5,6 C 0,0 km/h (0 Bft) 0,00 %
13.09.2012 00:10 5,6 C 0,0 C 0,0 C 88 % 1013,5 hPa 0,0 l/m 0,0 km/h (0 Bft) O 95 0 min 0,000 mm 0 W/m 3,8 C 5,6 C 0,0 km/h (0 Bft) 0,00 %
13.09.2012 00:15 5,8 C 0,0 C 0,0 C 88 % 1013,5 hPa 0,0 l/m 0,0 km/h (0 Bft) NO 55 0 min 0,000 mm 0 W/m 4,0 C 5,8 C 0,0 km/h (0 Bft) 0,00 %
13.09.2012 00:20 5,7 C 0,0 C 0,0 C 88 % 1013,5 hPa 0,0 l/m 0,0 km/h (0 Bft) N-NW 340 0 min 0,000 mm 0 W/m 3,9 C 5,7 C 0,0 km/h (0 Bft) 0,00 %
13.09.2012 00:25 5,4 C 0,0 C 0,0 C 88 % 1013,5 hPa 0,0 l/m 0,0 km/h (0 Bft) W-SW 245 0 min 0,000 mm 0 W/m 3,6 C 5,4 C 0,0 km/h (0 Bft) 0,00 %
13.09.2012 00:30 5,5 C 0,0 C 0,0 C 88 % 1013,5 hPa 0,0 l/m 0,0 km/h (0 Bft) NW 325 0 min 0,000 mm 0 W/m 3,7 C 5,5 C 0,0 km/h (0 Bft) 0,00 %
13.09.2012 00:35 5,5 C 0,0 C 0,0 C 88 % 1013,5 hPa 0,0 l/m 0,0 km/h (0 Bft) NW 325 0 min 0,000 mm 0 W/m 3,7 C 5,5 C 0,0 km/h (0 Bft) 0,00 %
13.09.2012 00:40 5,5 C 0,0 C 0,0 C 88 % 1013,5 hPa 0,0 l/m 0,0 km/h (0 Bft) S 185 0 min 0,000 mm 0 W/m 3,7 C 5,5 C 0,0 km/h (0 Bft) 0,00 %
13.09.2012 00:45 5,5 C 0,0 C 0,0 C 88 % 1013,5 hPa 0,0 l/m 0,0 km/h (0 Bft) S 190 0 min 0,000 mm 0 W/m 3,7 C 5,5 C 0,0 km/h (0 Bft) 0,00 %
13.09.2012 00:50 5,6 C 0,0 C 0,0 C 88 % 1013,5 hPa 0,0 l/m 0,0 km/h (0 Bft) O-NO 60 0 min 0,000 mm 0 W/m 3,8 C 5,6 C 0,0 km/h (0 Bft) 0,00 %
13.09.2012 00:55 5,7 C 0,0 C 0,0 C 88 % 1013,5 hPa 0,0 l/m 0,0 km/h (0 Bft) O-SO 105 0 min 0,000 mm 0 W/m 3,9 C 5,7 C 0,0 km/h (0 Bft) 0,00 %
13.09.2012 01:00 5,8 C 0,0 C 0,0 C 88 % 1013,5 hPa 0,0 l/m 0,0 km/h (0 Bft) NO 50 0 min 0,000 mm 0 W/m 4,0 C 5,8 C 0,0 km/h (0 Bft) 0,00 %
13.09.2012 01:05 5,8 C 0,0 C 0,0 C 88 % 1013,5 hPa 0,0 l/m 0,0 km/h (0 Bft) NO 40 0 min 0,000 mm 0 W/m 4,0 C 5,8 C 0,0 km/h (0 Bft) 0,00 %
13.09.2012 01:10 5,6 C 0,0 C 0,0 C 88 % 1013,5 hPa 0,0 l/m 0,0 km/h (0 Bft) W 260 0 min 0,000 mm 0 W/m 3,8 C 5,6 C 0,0 km/h (0 Bft) 0,00 %
13.09.2012 01:15 5,6 C 0,0 C 0,0 C 88 % 1013,5 hPa 0,0 l/m 0,0 km/h (0 Bft) NW 310 0 min 0,000 mm 0 W/m 3,8 C 5,6 C 0,0 km/h (0 Bft) 0,00 %
13.09.2012 01:20 5,6 C 0,0 C 0,0 C 88 % 1013,5 hPa 0,0 l/m 0,0 km/h (0 Bft) N-NW 345 0 min 0,000 mm 0 W/m 3,8 C 5,6 C 0,0 km/h (0 Bft) 0,00 %
13.09.2012 01:25 5,6 C 0,0 C 0,0 C 88 % 1013,5 hPa 0,0 l/m 0,0 km/h (0 Bft) NW 305 0 min 0,000 mm 0 W/m 3,8 C 5,6 C 0,0 km/h (0 Bft) 0,00 %
13.09.2012 01:30 5,8 C 0,0 C 0,0 C 88 % 1013,5 hPa 0,0 l/m 0,0 km/h (0 Bft) O-SO 120 0 min 0,000 mm 0 W/m 4,0 C 5,8 C 0,0 km/h (0 Bft) 0,00 %
13.09.2012 01:35 5,7 C 0,0 C 0,0 C 88 % 1013,5 hPa 0,0 l/m 0,0 km/h (0 Bft) S 170 0 min 0,000 mm 0 W/m 3,9 C 5,7 C 0,0 km/h (0 Bft) 0,00 %
13.09.2012 01:40 5,7 C 0,0 C 0,0 C 88 % 1013,5 hPa 0,0 l/m 0,0 km/h (0 Bft) O 80 0 min 0,000 mm 0 W/m 3,9 C 5,7 C 0,0 km/h (0 Bft) 0,00 %
13.09.2012 01:45 5,8 C 0,0 C 0,0 C 88 % 1013,5 hPa 0,0 l/m 0,0 km/h (0 Bft) NO 35 0 min 0,000 mm 0 W/m 4,0 C 5,8 C 0,0 km/h (0 Bft) 0,00 %
13.09.2012 01:50 5,9 C 0,0 C 0,0 C 88 % 1013,5 hPa 0,0 l/m 0,0 km/h (0 Bft) W 280 0 min 0,000 mm 0 W/m 4,1 C 5,9 C 0,0 km/h (0 Bft) 0,00 %
13.09.2012 01:55 5,9 C 0,0 C 0,0 C 88 % 1013,5 hPa 0,0 l/m 0,0 km/h (0 Bft) N-NW 340 0 min 0,000 mm 0 W/m 4,1 C 5,9 C 0,0 km/h (0 Bft) 0,00 %
13.09.2012 02:00 6,0 C 0,0 C 0,0 C 88 % 1013,5 hPa 0,0 l/m 0,0 km/h (0 Bft) N-NW 335 0 min 0,000 mm 0 W/m 4,2 C 6,0 C 0,0 km/h (0 Bft) 0,00 %
13.09.2012 02:05 6,1 C 0,0 C 0,0 C 88 % 1013,5 hPa 0,0 l/m 0,0 km/h (0 Bft) NW 325 0 min 0,000 mm 0 W/m 4,3 C 6,1 C 0,0 km/h (0 Bft) 0,00 %
13.09.2012 02:10 6,2 C 0,0 C 0,0 C 89 % 1013,5 hPa 0,0 l/m 0,0 km/h (0 Bft) W-NW 300 0 min 0,000 mm 0 W/m 4,5 C 6,2 C 0,0 km/h (0 Bft) 0,00 %
13.09.2012 02:15 6,2 C 0,0 C 0,0 C 89 % 1013,5 hPa 0,0 l/m 0,0 km/h (0 Bft) O-SO 120 0 min 0,000 mm 0 W/m 4,5 C 6,2 C 0,0 km/h (0 Bft) 0,00 %
13.09.2012 02:20 6,3 C 0,0 C 0,0 C 89 % 1013,5 hPa 0,0 l/m 0,0 km/h (0 Bft) NO 50 0 min 0,000 mm 0 W/m 4,6 C 6,3 C 0,0 km/h (0 Bft) 0,00 %
13.09.2012 02:25 6,3 C 0,0 C 0,0 C 89 % 1013,5 hPa 0,0 l/m 0,0 km/h (0 Bft) NO 55 0 min 0,000 mm 0 W/m 4,6 C 6,3 C 0,0 km/h (0 Bft) 0,00 %
13.09.2012 02:30 6,4 C 0,0 C 0,0 C 89 % 1013,5 hPa 0,0 l/m 0,0 km/h (0 Bft) O-SO 120 0 min 0,000 mm 0 W/m 4,7 C 6,4 C 0,0 km/h (0 Bft) 0,00 %
13.09.2012 02:35 6,4 C 0,0 C 0,0 C 89 % 1013,5 hPa 0,0 l/m 0,0 km/h (0 Bft) N 10 0 min 0,000 mm 0 W/m 4,7 C 6,4 C 0,0 km/h (0 Bft) 0,00 %
13.09.2012 02:40 6,4 C 0,0 C 0,0 C 89 % 1013,5 hPa 0,0 l/m 0,0 km/h (0 Bft) W 280 0 min 0,000 mm 0 W/m 4,7 C 6,4 C 0,0 km/h (0 Bft) 0,00 %
13.09.2012 02:45 6,4 C 0,0 C 0,0 C 89 % 1013,5 hPa 0,0 l/m 0,0 km/h (0 Bft) N-NW 335 0 min 0,000 mm 0 W/m 4,7 C 6,4 C 0,0 km/h (0 Bft) 0,00 %
13.09.2012 02:50 6,4 C 0,0 C 0,0 C 89 % 1013,5 hPa 0,0 l/m 0,0 km/h (0 Bft) N 350 0 min 0,000 mm 0 W/m 4,7 C 6,4 C 0,0 km/h (0 Bft) 0,00 %
13.09.2012 02:55 6,5 C 0,0 C 0,0 C 89 % 1013,5 hPa 0,0 l/m 0,0 km/h (0 Bft) W-NW 295 0 min 0,000 mm 0 W/m 4,8 C 6,5 C 0,0 km/h (0 Bft) 0,00 %
13.09.2012 03:00 6,5 C 0,0 C 0,0 C 89 % 1013,5 hPa 0,0 l/m 0,0 km/h (0 Bft) N 355 0 min 0,000 mm 0 W/m 4,8 C 6,5 C 0,0 km/h (0 Bft) 0,00 %
13.09.2012 03:05 6,6 C 0,0 C 0,0 C 89 % 1013,5 hPa 0,0 l/m 0,0 km/h (0 Bft) NO 40 0 min 0,000 mm 0 W/m 4,9 C 6,6 C 0,0 km/h (0 Bft) 0,00 %
13.09.2012 03:10 6,6 C 0,0 C 0,0 C 89 % 1013,5 hPa 0,0 l/m 0,0 km/h (0 Bft) O-NO 60 0 min 0,000 mm 0 W/m 4,9 C 6,6 C 0,0 km/h (0 Bft) 0,00 %
13.09.2012 03:15 6,6 C 0,0 C 0,0 C 89 % 1013,5 hPa 0,0 l/m 0,0 km/h (0 Bft) NO 45 0 min 0,000 mm 0 W/m 4,9 C 6,6 C 0,0 km/h (0 Bft) 0,00 %
13.09.2012 03:20 6,6 C 0,0 C 0,0 C 89 % 1013,5 hPa 0,0 l/m 0,0 km/h (0 Bft) O-NO 75 0 min 0,000 mm 0 W/m 4,9 C 6,6 C 0,0 km/h (0 Bft) 0,00 %
13.09.2012 03:25 6,6 C 0,0 C 0,0 C 89 % 1013,5 hPa 0,0 l/m 0,0 km/h (0 Bft) O-SO 120 0 min 0,000 mm 0 W/m 4,9 C 6,6 C 0,0 km/h (0 Bft) 0,00 %
13.09.2012 03:30 6,6 C 0,0 C 0,0 C 89 % 1013,5 hPa 0,0 l/m 0,0 km/h (0 Bft) NO 50 0 min 0,000 mm 0 W/m 4,9 C 6,6 C 0,0 km/h (0 Bft) 0,00 %
13.09.2012 03:35 6,6 C 0,0 C 0,0 C 89 % 1013,5 hPa 0,0 l/m 0,0 km/h (0 Bft) O 85 0 min 0,000 mm 0 W/m 4,9 C 6,6 C 0,0 km/h (0 Bft) 0,00 %
13.09.2012 03:40 6,6 C 0,0 C 0,0 C 89 % 1013,5 hPa 0,0 l/m 0,0 km/h (0 Bft) N 10 0 min 0,000 mm 0 W/m 4,9 C 6,6 C 0,0 km/h (0 Bft) 0,00 %
13.09.2012 03:45 6,7 C 0,0 C 0,0 C 89 % 1013,5 hPa 0,0 l/m 0,0 km/h (0 Bft) NW 305 0 min 0,000 mm 0 W/m 5,0 C 6,7 C 0,0 km/h (0 Bft) 0,00 %
13.09.2012 03:50 6,7 C 0,0 C 0,0 C 89 % 1012,5 hPa 0,0 l/m 0,0 km/h (0 Bft) NW 320 0 min 0,000 mm 0 W/m 5,0 C 6,7 C 0,0 km/h (0 Bft) 0,00 %
13.09.2012 03:55 6,7 C 0,0 C 0,0 C 89 % 1012,5 hPa 0,0 l/m 0,0 km/h (0 Bft) N-NW 335 0 min 0,000 mm 0 W/m 5,0 C 6,7 C 0,0 km/h (0 Bft) 0,00 %
13.09.2012 04:00 6,8 C 0,0 C 0,0 C 89 % 1012,5 hPa 0,0 l/m 0,0 km/h (0 Bft) SO 145 0 min 0,000 mm 0 W/m 5,1 C 6,8 C 0,0 km/h (0 Bft) 0,00 %
13.09.2012 04:05 6,9 C 0,0 C 0,0 C 89 % 1013,5 hPa 0,0 l/m 0,0 km/h (0 Bft) O 85 0 min 0,000 mm 0 W/m 5,2 C 6,9 C 0,0 km/h (0 Bft) 0,00 %
13.09.2012 04:10 6,8 C 0,0 C 0,0 C 89 % 1013,5 hPa 0,0 l/m 0,0 km/h (0 Bft) S-SO 160 0 min 0,000 mm 0 W/m 5,1 C 6,8 C 0,0 km/h (0 Bft) 0,00 %
13.09.2012 04:15 6,9 C 0,0 C 0,0 C 89 % 1013,5 hPa 0,0 l/m 0,0 km/h (0 Bft) S 190 0 min 0,000 mm 0 W/m 5,2 C 6,9 C 0,0 km/h (0 Bft) 0,00 %
13.09.2012 04:20 6,8 C 0,0 C 0,0 C 89 % 1013,5 hPa 0,0 l/m 0,0 km/h (0 Bft) N 10 0 min 0,000 mm 0 W/m 5,1 C 6,8 C 0,0 km/h (0 Bft) 0,00 %
13.09.2012 04:25 6,7 C 0,0 C 0,0 C 89 % 1013,5 hPa 0,0 l/m 0,0 km/h (0 Bft) NO 50 0 min 0,000 mm 0 W/m 5,0 C 6,7 C 0,0 km/h (0 Bft) 0,00 %
13.09.2012 04:30 6,7 C 0,0 C 0,0 C 89 % 1013,5 hPa 0,0 l/m 0,0 km/h (0 Bft) O 100 0 min 0,000 mm 0 W/m 5,0 C 6,7 C 0,0 km/h (0 Bft) 0,00 %
13.09.2012 04:35 6,7 C 0,0 C 0,0 C 89 % 1012,5 hPa 0,0 l/m 0,0 km/h (0 Bft) W-SW 245 0 min 0,000 mm 0 W/m 5,0 C 6,7 C 0,0 km/h (0 Bft) 0,00 %
13.09.2012 04:40 6,7 C 0,0 C 0,0 C 89 % 1012,5 hPa 0,0 l/m 0,0 km/h (0 Bft) SO 145 0 min 0,000 mm 0 W/m 5,0 C 6,7 C 0,0 km/h (0 Bft) 0,00 %
13.09.2012 04:45 6,8 C 0,0 C 0,0 C 89 % 1012,5 hPa 0,0 l/m 0,0 km/h (0 Bft) W-SW 245 0 min 0,000 mm 0 W/m 5,1 C 6,8 C 0,0 km/h (0 Bft) 0,00 %
13.09.2012 04:50 6,8 C 0,0 C 0,0 C 89 % 1012,5 hPa 0,0 l/m 0,0 km/h (0 Bft) W-SW 245 0 min 0,000 mm 0 W/m 5,1 C 6,8 C 0,0 km/h (0 Bft) 0,00 %
13.09.2012 04:55 6,7 C 0,0 C 0,0 C 89 % 1012,5 hPa 0,0 l/m 0,0 km/h (0 Bft) W 265 0 min 0,000 mm 0 W/m 5,0 C 6,7 C 0,0 km/h (0 Bft) 0,00 %
13.09.2012 05:00 6,7 C 0,0 C 0,0 C 89 % 1012,5 hPa 0,0 l/m 0,0 km/h (0 Bft) N-NW 330 0 min 0,000 mm 0 W/m 5,0 C 6,7 C 0,0 km/h (0 Bft) 0,00 %
13.09.2012 05:05 6,7 C 0,0 C 0,0 C 89 % 1012,5 hPa 0,0 l/m 0,0 km/h (0 Bft) W-SW 240 0 min 0,000 mm 0 W/m 5,0 C 6,7 C 0,0 km/h (0 Bft) 0,00 %
13.09.2012 05:10 6,8 C 0,0 C 0,0 C 89 % 1012,5 hPa 0,0 l/m 0,0 km/h (0 Bft) W-SW 245 0 min 0,000 mm 0 W/m 5,1 C 6,8 C 0,0 km/h (0 Bft) 0,00 %
13.09.2012 05:15 6,8 C 0,0 C 0,0 C 89 % 1012,5 hPa 0,0 l/m 0,0 km/h (0 Bft) W-SW 240 0 min 0,000 mm 0 W/m 5,1 C 6,8 C 0,0 km/h (0 Bft) 0,00 %
13.09.2012 05:20 6,9 C 0,0 C 0,0 C 89 % 1013,5 hPa 0,0 l/m 0,0 km/h (0 Bft) NW 325 0 min 0,000 mm 0 W/m 5,2 C 6,9 C 0,0 km/h (0 Bft) 0,00 %
13.09.2012 05:25 6,9 C 0,0 C 0,0 C 89 % 1013,5 hPa 0,0 l/m 0,0 km/h (0 Bft) N 355 0 min 0,000 mm 0 W/m 5,2 C 6,9 C 0,0 km/h (0 Bft) 0,00 %
13.09.2012 05:30 6,9 C 0,0 C 0,0 C 89 % 1013,5 hPa 0,0 l/m 0,0 km/h (0 Bft) SO 125 0 min 0,000 mm 0 W/m 5,2 C 6,9 C 0,0 km/h (0 Bft) 0,00 %
13.09.2012 05:35 7,0 C 0,0 C 0,0 C 89 % 1013,5 hPa 0,0 l/m 0,0 km/h (0 Bft) W-SW 240 0 min 0,000 mm 0 W/m 5,3 C 7,0 C 0,0 km/h (0 Bft) 0,00 %
13.09.2012 05:40 6,9 C 0,0 C 0,0 C 89 % 1013,5 hPa 0,0 l/m 0,0 km/h (0 Bft) O 90 0 min 0,000 mm 0 W/m 5,2 C 6,9 C 0,0 km/h (0 Bft) 0,00 %
13.09.2012 05:45 7,0 C 0,0 C 0,0 C 89 % 1013,5 hPa 0,0 l/m 0,0 km/h (0 Bft) S 190 0 min 0,000 mm 0 W/m 5,3 C 7,0 C 0,0 km/h (0 Bft) 0,00 %
13.09.2012 05:50 7,0 C 0,0 C 0,0 C 89 % 1013,5 hPa 0,0 l/m 0,0 km/h (0 Bft) S-SO 150 0 min 0,000 mm 0 W/m 5,3 C 7,0 C 0,0 km/h (0 Bft) 0,00 %
13.09.2012 05:55 7,1 C 0,0 C 0,0 C 89 % 1013,5 hPa 0,0 l/m 0,0 km/h (0 Bft) S-SO 155 0 min 0,000 mm 0 W/m 5,4 C 7,1 C 0,0 km/h (0 Bft) 0,00 %
13.09.2012 06:00 7,1 C 0,0 C 0,0 C 89 % 1013,5 hPa 0,0 l/m 0,0 km/h (0 Bft) SW 235 0 min 0,000 mm 0 W/m 5,4 C 7,1 C 0,0 km/h (0 Bft) 0,00 %
13.09.2012 06:05 7,1 C 0,0 C 0,0 C 89 % 1013,5 hPa 0,0 l/m 0,0 km/h (0 Bft) W-NW 290 0 min 0,000 mm 0 W/m 5,4 C 7,1 C 0,0 km/h (0 Bft) 0,00 %
13.09.2012 06:10 7,1 C 0,0 C 0,0 C 89 % 1013,5 hPa 0,0 l/m 0,0 km/h (0 Bft) W 270 0 min 0,000 mm 0 W/m 5,4 C 7,1 C 0,0 km/h (0 Bft) 0,00 %
13.09.2012 06:15 7,0 C 0,0 C 0,0 C 89 % 1013,5 hPa 0,0 l/m 0,0 km/h (0 Bft) W-SW 245 0 min 0,000 mm 0 W/m 5,3 C 7,0 C 0,0 km/h (0 Bft) 0,00 %
13.09.2012 06:20 7,0 C 0,0 C 0,0 C 89 % 1013,5 hPa 0,0 l/m 0,0 km/h (0 Bft) W-SW 250 0 min 0,000 mm 0 W/m 5,3 C 7,0 C 0,0 km/h (0 Bft) 0,00 %
13.09.2012 06:25 7,0 C 0,0 C 0,0 C 89 % 1013,5 hPa 0,0 l/m 0,0 km/h (0 Bft) W-SW 240 0 min 0,000 mm 0 W/m 5,3 C 7,0 C 0,0 km/h (0 Bft) 0,00 %
13.09.2012 06:30 6,9 C 0,0 C 0,0 C 89 % 1013,5 hPa 0,0 l/m 0,0 km/h (0 Bft) S-SO 165 0 min 0,000 mm 0 W/m 5,2 C 6,9 C 0,0 km/h (0 Bft) 0,00 %
13.09.2012 06:35 6,9 C 0,0 C 0,0 C 89 % 1013,5 hPa 0,0 l/m 0,0 km/h (0 Bft) O-SO 110 0 min 0,000 mm 0 W/m 5,2 C 6,9 C 0,0 km/h (0 Bft) 0,00 %
13.09.2012 06:40 7,0 C 0,0 C 0,0 C 89 % 1013,5 hPa 0,0 l/m 0,0 km/h (0 Bft) O-NO 75 0 min 0,000 mm 0 W/m 5,3 C 7,0 C 0,0 km/h (0 Bft) 0,00 %
13.09.2012 06:45 7,0 C 0,0 C 0,0 C 89 % 1013,5 hPa 0,0 l/m 0,0 km/h (0 Bft) SO 125 0 min 0,000 mm 0 W/m 5,3 C 7,0 C 0,0 km/h (0 Bft) 0,00 %
13.09.2012 06:50 6,9 C 0,0 C 0,0 C 89 % 1013,5 hPa 0,0 l/m 0,0 km/h (0 Bft) S-SW 205 0 min 0,000 mm 0 W/m 5,2 C 6,9 C 0,0 km/h (0 Bft) 0,00 %
13.09.2012 06:55 6,9 C 0,0 C 0,0 C 89 % 1013,5 hPa 0,0 l/m 0,0 km/h (0 Bft) SO 145 0 min 0,000 mm 0 W/m 5,2 C 6,9 C 0,0 km/h (0 Bft) 0,00 %
13.09.2012 07:00 6,9 C 0,0 C 0,0 C 89 % 1013,5 hPa 0,0 l/m 0,0 km/h (0 Bft) NO 50 0 min 0,000 mm 0 W/m 5,2 C 6,9 C 0,0 km/h (0 Bft) 0,00 %
13.09.2012 07:05 7,0 C 0,0 C 0,0 C 89 % 1013,5 hPa 0,0 l/m 0,0 km/h (0 Bft) S-SO 150 0 min 0,000 mm 0 W/m 5,3 C 7,0 C 0,0 km/h (0 Bft) 0,00 %
13.09.2012 07:10 7,0 C 0,0 C 0,0 C 89 % 1013,5 hPa 0,0 l/m 0,0 km/h (0 Bft) NO 55 0 min 0,000 mm 0 W/m 5,3 C 7,0 C 0,0 km/h (0 Bft) 0,00 %
13.09.2012 07:15 7,0 C 0,0 C 0,0 C 89 % 1013,5 hPa 0,0 l/m 0,0 km/h (0 Bft) NW 305 0 min 0,000 mm 0 W/m 5,3 C 7,0 C 0,0 km/h (0 Bft) 0,00 %
13.09.2012 07:20 7,1 C 0,0 C 0,0 C 89 % 1013,5 hPa 0,0 l/m 0,0 km/h (0 Bft) N-NO 15 0 min 0,000 mm 0 W/m 5,4 C 7,1 C 0,0 km/h (0 Bft) 0,00 %
13.09.2012 07:25 7,1 C 0,0 C 0,0 C 89 % 1013,5 hPa 0,0 l/m 0,0 km/h (0 Bft) S-SO 160 0 min 0,000 mm 0 W/m 5,4 C 7,1 C 0,0 km/h (0 Bft) 0,00 %
13.09.2012 07:30 7,1 C 0,0 C 0,0 C 89 % 1013,5 hPa 0,0 l/m 0,0 km/h (0 Bft) NO 55 0 min 0,000 mm 0 W/m 5,4 C 7,1 C 0,0 km/h (0 Bft) 0,00 %
13.09.2012 07:35 7,2 C 0,0 C 0,0 C 89 % 1013,5 hPa 0,0 l/m 0,0 km/h (0 Bft) N-NO 15 0 min 0,000 mm 0 W/m 5,5 C 7,2 C 0,0 km/h (0 Bft) 0,00 %
13.09.2012 07:40 7,3 C 0,0 C 0,0 C 89 % 1013,5 hPa 0,0 l/m 0,0 km/h (0 Bft) O-SO 120 0 min 0,000 mm 0 W/m 5,6 C 7,3 C 0,0 km/h (0 Bft) 0,00 %
13.09.2012 07:45 7,3 C 0,0 C 0,0 C 89 % 1013,5 hPa 0,0 l/m 0,0 km/h (0 Bft) O-SO 105 0 min 0,000 mm 0 W/m 5,6 C 7,3 C 0,0 km/h (0 Bft) 0,00 %
13.09.2012 07:50 7,4 C 0,0 C 0,0 C 88 % 1013,5 hPa 0,0 l/m 0,0 km/h (0 Bft) S-SO 155 0 min 0,000 mm 0 W/m 5,5 C 7,4 C 0,0 km/h (0 Bft) 0,00 %
13.09.2012 07:55 7,6 C 0,0 C 0,0 C 88 % 1013,5 hPa 0,0 l/m 0,0 km/h (0 Bft) O 95 0 min 0,000 mm 0 W/m 5,7 C 7,6 C 0,0 km/h (0 Bft) 0,00 %
13.09.2012 08:00 7,6 C 0,0 C 0,0 C 88 % 1013,5 hPa 0,0 l/m 0,0 km/h (0 Bft) O-NO 70 0 min 0,000 mm 0 W/m 5,7 C 7,6 C 0,0 km/h (0 Bft) 0,00 %
13.09.2012 08:05 7,6 C 0,0 C 0,0 C 88 % 1013,5 hPa 0,0 l/m 0,0 km/h (0 Bft) S-SO 165 0 min 0,000 mm 0 W/m 5,7 C 7,6 C 0,0 km/h (0 Bft) 0,00 %
13.09.2012 08:10 7,7 C 0,0 C 0,0 C 88 % 1013,5 hPa 0,0 l/m 0,0 km/h (0 Bft) S-SO 150 0 min 0,000 mm 0 W/m 5,8 C 7,7 C 0,0 km/h (0 Bft) 0,00 %
13.09.2012 08:15 7,8 C 0,0 C 0,0 C 89 % 1013,5 hPa 0,0 l/m 0,0 km/h (0 Bft) S 180 0 min 0,000 mm 0 W/m 6,1 C 7,8 C 0,0 km/h (0 Bft) 0,00 %
13.09.2012 08:20 8,0 C 0,0 C 0,0 C 88 % 1013,5 hPa 0,0 l/m 0,0 km/h (0 Bft) N-NO 25 0 min 0,000 mm 0 W/m 6,1 C 8,0 C 0,0 km/h (0 Bft) 0,00 %
13.09.2012 08:25 8,0 C 0,0 C 0,0 C 88 % 1013,5 hPa 0,0 l/m 0,0 km/h (0 Bft) NO 40 0 min 0,000 mm 0 W/m 6,1 C 8,0 C 0,0 km/h (0 Bft) 0,00 %
13.09.2012 08:30 8,2 C 0,0 C 0,0 C 88 % 1013,5 hPa 0,0 l/m 0,0 km/h (0 Bft) SW 235 0 min 0,000 mm 0 W/m 6,3 C 8,2 C 0,0 km/h (0 Bft) 0,00 %
13.09.2012 08:35 8,2 C 0,0 C 0,0 C 88 % 1013,5 hPa 0,0 l/m 0,0 km/h (0 Bft) SW 225 0 min 0,000 mm 0 W/m 6,3 C 8,2 C 0,0 km/h (0 Bft) 0,00 %
13.09.2012 08:40 8,3 C 0,0 C 0,0 C 88 % 1013,5 hPa 0,0 l/m 0,0 km/h (0 Bft) W-SW 250 0 min 0,000 mm 0 W/m 6,4 C 8,3 C 0,0 km/h (0 Bft) 0,00 %
13.09.2012 08:45 8,4 C 0,0 C 0,0 C 88 % 1013,5 hPa 0,0 l/m 0,0 km/h (0 Bft) SW 225 0 min 0,000 mm 0 W/m 6,5 C 8,4 C 0,0 km/h (0 Bft) 0,00 %
13.09.2012 08:50 8,4 C 0,0 C 0,0 C 88 % 1013,5 hPa 0,0 l/m 0,0 km/h (0 Bft) W-NW 285 0 min 0,000 mm 0 W/m 6,5 C 8,4 C 0,0 km/h (0 Bft) 0,00 %
13.09.2012 08:55 8,5 C 0,0 C 0,0 C 88 % 1013,5 hPa 0,0 l/m 0,0 km/h (0 Bft) S 180 0 min 0,000 mm 0 W/m 6,6 C 8,5 C 0,0 km/h (0 Bft) 0,00 %
13.09.2012 09:00 8,6 C 0,0 C 0,0 C 88 % 1013,5 hPa 0,0 l/m 0,0 km/h (0 Bft) S-SO 165 0 min 0,000 mm 0 W/m 6,7 C 8,6 C 0,0 km/h (0 Bft) 0,00 %
13.09.2012 09:05 8,7 C 0,0 C 0,0 C 88 % 1013,5 hPa 0,0 l/m 0,0 km/h (0 Bft) S 190 0 min 0,000 mm 0 W/m 6,8 C 8,7 C 0,0 km/h (0 Bft) 0,00 %
13.09.2012 09:10 8,8 C 0,0 C 0,0 C 88 % 1013,5 hPa 0,0 l/m 0,0 km/h (0 Bft) O 85 0 min 0,000 mm 0 W/m 6,9 C 8,8 C 0,0 km/h (0 Bft) 0,00 %
13.09.2012 09:15 8,7 C 0,0 C 0,0 C 87 % 1013,5 hPa 0,0 l/m 0,0 km/h (0 Bft) S 170 0 min 0,000 mm 0 W/m 6,7 C 8,7 C 0,0 km/h (0 Bft) 0,00 %
13.09.2012 09:20 8,9 C 0,0 C 0,0 C 88 % 1013,5 hPa 0,0 l/m 0,0 km/h (0 Bft) S-SW 205 0 min 0,000 mm 0 W/m 7,0 C 8,9 C 0,0 km/h (0 Bft) 0,00 %
13.09.2012 09:25 8,9 C 0,0 C 0,0 C 88 % 1013,5 hPa 0,0 l/m 0,0 km/h (0 Bft) S 175 0 min 0,000 mm 0 W/m 7,0 C 8,9 C 0,0 km/h (0 Bft) 0,00 %
13.09.2012 09:30 9,0 C 0,0 C 0,0 C 88 % 1013,5 hPa 0,0 l/m 0,0 km/h (0 Bft) O-SO 120 0 min 0,000 mm 0 W/m 7,1 C 9,0 C 0,0 km/h (0 Bft) 0,00 %
13.09.2012 09:35 8,9 C 0,0 C 0,0 C 88 % 1013,5 hPa 0,0 l/m 0,0 km/h (0 Bft) SW 235 0 min 0,000 mm 0 W/m 7,0 C 8,9 C 0,0 km/h (0 Bft) 0,00 %
13.09.2012 09:40 9,0 C 0,0 C 0,0 C 88 % 1013,5 hPa 0,0 l/m 0,0 km/h (0 Bft) S-SO 165 0 min 0,000 mm 0 W/m 7,1 C 9,0 C 0,0 km/h (0 Bft) 0,00 %
13.09.2012 09:45 9,1 C 0,0 C 0,0 C 87 % 1013,5 hPa 0,0 l/m 0,0 km/h (0 Bft) S 170 0 min 0,000 mm 0 W/m 7,1 C 9,1 C 0,0 km/h (0 Bft) 0,00 %
13.09.2012 09:50 9,1 C 0,0 C 0,0 C 87 % 1013,5 hPa 0,0 l/m 0,0 km/h (0 Bft) S 170 0 min 0,000 mm 0 W/m 7,1 C 9,1 C 0,0 km/h (0 Bft) 0,00 %
13.09.2012 09:55 9,1 C 0,0 C 0,0 C 87 % 1013,5 hPa 0,0 l/m 0,0 km/h (0 Bft) SO 125 0 min 0,000 mm 0 W/m 7,1 C 9,1 C 0,0 km/h (0 Bft) 0,00 %
13.09.2012 10:00 9,3 C 0,0 C 0,0 C 87 % 1013,5 hPa 0,0 l/m 0,0 km/h (0 Bft) W-SW 245 0 min 0,000 mm 0 W/m 7,2 C 9,3 C 0,0 km/h (0 Bft) 0,00 %
13.09.2012 10:05 9,8 C 0,0 C 0,0 C 87 % 1014,5 hPa 0,0 l/m 0,0 km/h (0 Bft) W-NW 295 0 min 0,000 mm 0 W/m 7,7 C 9,8 C 0,0 km/h (0 Bft) 0,00 %
13.09.2012 10:10 10,0 C 0,0 C 0,0 C 87 % 1014,5 hPa 0,0 l/m 0,0 km/h (0 Bft) S 170 0 min 0,000 mm 0 W/m 7,9 C 10,0 C 0,0 km/h (0 Bft) 0,00 %
13.09.2012 10:15 10,1 C 0,0 C 0,0 C 86 % 1014,5 hPa 0,0 l/m 0,0 km/h (0 Bft) S-SO 165 0 min 0,000 mm 0 W/m 7,9 C 10,1 C 0,0 km/h (0 Bft) 0,00 %
13.09.2012 10:20 10,2 C 0,0 C 0,0 C 85 % 1014,5 hPa 0,0 l/m 0,0 km/h (0 Bft) SW 215 0 min 0,000 mm 0 W/m 7,8 C 10,2 C 0,0 km/h (0 Bft) 0,00 %
13.09.2012 10:25 10,5 C 0,0 C 0,0 C 85 % 1014,5 hPa 0,0 l/m 0,0 km/h (0 Bft) S-SO 150 0 min 0,000 mm 0 W/m 8,1 C 10,5 C 0,0 km/h (0 Bft) 0,00 %
13.09.2012 10:30 10,9 C 0,0 C 0,0 C 84 % 1014,5 hPa 0,0 l/m 0,0 km/h (0 Bft) W 275 0 min 0,000 mm 0 W/m 8,3 C 10,9 C 0,0 km/h (0 Bft) 0,00 %
13.09.2012 10:35 11,8 C 0,0 C 0,0 C 83 % 1014,5 hPa 0,0 l/m 0,0 km/h (0 Bft) S 185 0 min 0,000 mm 0 W/m 9,0 C 11,8 C 0,0 km/h (0 Bft) 0,00 %
13.09.2012 10:40 11,8 C 0,0 C 0,0 C 82 % 1014,5 hPa 0,0 l/m 0,0 km/h (0 Bft) W-SW 255 0 min 0,000 mm 0 W/m 8,8 C 11,8 C 0,0 km/h (0 Bft) 0,00 %
13.09.2012 10:45 11,9 C 0,0 C 0,0 C 80 % 1014,5 hPa 0,0 l/m 0,0 km/h (0 Bft) NW 315 0 min 0,000 mm 0 W/m 8,6 C 11,9 C 0,0 km/h (0 Bft) 0,00 %
13.09.2012 10:50 11,4 C 0,0 C 0,0 C 81 % 1014,5 hPa 0,0 l/m 0,0 km/h (0 Bft) SO 130 0 min 0,000 mm 0 W/m 8,3 C 11,4 C 0,0 km/h (0 Bft) 0,00 %
13.09.2012 10:55 11,3 C 0,0 C 0,0 C 81 % 1014,5 hPa 0,0 l/m 0,0 km/h (0 Bft) W 265 0 min 0,000 mm 0 W/m 8,2 C 11,3 C 0,0 km/h (0 Bft) 0,00 %
13.09.2012 11:00 11,4 C 0,0 C 0,0 C 82 % 1014,5 hPa 0,0 l/m 0,0 km/h (0 Bft) W 260 0 min 0,000 mm 0 W/m 8,4 C 11,4 C 0,0 km/h (0 Bft) 0,00 %
13.09.2012 11:05 11,2 C 0,0 C 0,0 C 82 % 1014,5 hPa 0,0 l/m 0,0 km/h (0 Bft) S 180 0 min 0,000 mm 0 W/m 8,2 C 11,2 C 0,0 km/h (0 Bft) 0,00 %
13.09.2012 11:10 11,0 C 0,0 C 0,0 C 83 % 1014,5 hPa 0,0 l/m 3,6 km/h (1 Bft) W-SW 250 0 min 0,000 mm 0 W/m 8,2 C 11,0 C 3,6 km/h (1 Bft) 0,00 %
13.09.2012 11:15 11,2 C 0,0 C 0,0 C 83 % 1014,5 hPa 0,0 l/m 0,0 km/h (0 Bft) S-SW 205 0 min 0,000 mm 0 W/m 8,4 C 11,2 C 0,0 km/h (0 Bft) 0,00 %
13.09.2012 11:20 11,2 C 0,0 C 0,0 C 83 % 1014,5 hPa 0,0 l/m 0,0 km/h (0 Bft) S-SW 210 0 min 0,000 mm 0 W/m 8,4 C 11,2 C 0,0 km/h (0 Bft) 0,00 %
13.09.2012 11:25 11,4 C 0,0 C 0,0 C 83 % 1014,5 hPa 0,0 l/m 0,0 km/h (0 Bft) NO 50 0 min 0,000 mm 0 W/m 8,6 C 11,4 C 0,0 km/h (0 Bft) 0,00 %
13.09.2012 11:30 11,6 C 0,0 C 0,0 C 83 % 1014,5 hPa 0,0 l/m 0,0 km/h (0 Bft) NW 315 0 min 0,000 mm 0 W/m 8,8 C 11,6 C 0,0 km/h (0 Bft) 0,00 %
13.09.2012 11:35 11,9 C 0,0 C 0,0 C 83 % 1014,5 hPa 0,0 l/m 0,0 km/h (0 Bft) W 280 0 min 0,000 mm 0 W/m 9,1 C 11,9 C 0,0 km/h (0 Bft) 0,00 %
13.09.2012 11:40 11,8 C 0,0 C 0,0 C 82 % 1014,5 hPa 0,0 l/m 0,0 km/h (0 Bft) S 185 0 min 0,000 mm 0 W/m 8,8 C 11,8 C 0,0 km/h (0 Bft) 0,00 %
13.09.2012 11:45 11,7 C 0,0 C 0,0 C 81 % 1014,5 hPa 0,0 l/m 0,0 km/h (0 Bft) W 270 0 min 0,000 mm 0 W/m 8,5 C 11,7 C 0,0 km/h (0 Bft) 0,00 %
13.09.2012 11:50 11,6 C 0,0 C 0,0 C 82 % 1014,5 hPa 0,0 l/m 0,9 km/h (0 Bft) S-SO 150 0 min 0,000 mm 0 W/m 8,6 C 11,6 C 0,9 km/h (0 Bft) 0,00 %
13.09.2012 11:55 11,8 C 0,0 C 0,0 C 81 % 1014,5 hPa 0,0 l/m 2,4 km/h (1 Bft) S 170 0 min 0,000 mm 0 W/m 8,6 C 11,8 C 2,4 km/h (1 Bft) 0,00 %
13.09.2012 12:00 12,2 C 0,0 C 0,0 C 80 % 1014,5 hPa 0,0 l/m 3,6 km/h (1 Bft) S-SO 155 0 min 0,000 mm 0 W/m 8,9 C 12,2 C 3,6 km/h (1 Bft) 0,00 %
13.09.2012 12:05 12,6 C 0,0 C 0,0 C 79 % 1014,5 hPa 0,0 l/m 3,3 km/h (1 Bft) S-SW 200 0 min 0,000 mm 0 W/m 9,1 C 12,6 C 3,3 km/h (1 Bft) 0,00 %
13.09.2012 12:10 12,8 C 0,0 C 0,0 C 78 % 1014,5 hPa 0,0 l/m 4,5 km/h (1 Bft) S-SO 155 0 min 0,000 mm 0 W/m 9,1 C 12,8 C 4,5 km/h (1 Bft) 0,00 %
13.09.2012 12:15 12,3 C 0,0 C 0,0 C 78 % 1014,5 hPa 0,0 l/m 0,0 km/h (0 Bft) O-SO 120 0 min 0,000 mm 0 W/m 8,6 C 12,3 C 0,0 km/h (0 Bft) 0,00 %
13.09.2012 12:20 12,2 C 0,0 C 0,0 C 78 % 1014,5 hPa 0,0 l/m 0,0 km/h (0 Bft) S 170 0 min 0,000 mm 0 W/m 8,5 C 12,2 C 0,0 km/h (0 Bft) 0,00 %
13.09.2012 12:25 12,6 C 0,0 C 0,0 C 79 % 1014,5 hPa 0,0 l/m 0,0 km/h (0 Bft) S-SO 165 0 min 0,000 mm 0 W/m 9,1 C 12,6 C 0,0 km/h (0 Bft) 0,00 %
13.09.2012 12:30 12,8 C 0,0 C 0,0 C 78 % 1014,5 hPa 0,0 l/m 0,0 km/h (0 Bft) S-SW 205 0 min 0,000 mm 0 W/m 9,1 C 12,8 C 0,0 km/h (0 Bft) 0,00 %
13.09.2012 12:35 13,1 C 0,0 C 0,0 C 77 % 1014,5 hPa 0,0 l/m 0,0 km/h (0 Bft) N-NO 15 0 min 0,000 mm 0 W/m 9,2 C 13,1 C 0,0 km/h (0 Bft) 0,00 %
13.09.2012 12:40 13,7 C 0,0 C 0,0 C 77 % 1014,5 hPa 0,0 l/m 0,0 km/h (0 Bft) S-SO 150 0 min 0,000 mm 0 W/m 9,7 C 13,7 C 0,0 km/h (0 Bft) 0,00 %
13.09.2012 12:45 14,2 C 0,0 C 0,0 C 74 % 1014,5 hPa 0,0 l/m 6,4 km/h (2 Bft) SW 225 0 min 0,000 mm 0 W/m 9,6 C 14,2 C 6,4 km/h (2 Bft) 0,00 %
13.09.2012 12:50 14,2 C 0,0 C 0,0 C 73 % 1014,5 hPa 0,0 l/m 0,9 km/h (0 Bft) NO 35 0 min 0,000 mm 0 W/m 9,4 C 14,2 C 0,9 km/h (0 Bft) 0,00 %
13.09.2012 12:55 13,4 C 0,0 C 0,0 C 74 % 1014,5 hPa 0,0 l/m 8,2 km/h (2 Bft) S 190 0 min 0,000 mm 0 W/m 8,9 C 13,4 C 8,2 km/h (2 Bft) 0,00 %
13.09.2012 13:00 13,4 C 0,0 C 0,0 C 74 % 1014,5 hPa 0,0 l/m 0,9 km/h (0 Bft) S 170 0 min 0,000 mm 0 W/m 8,9 C 13,4 C 0,9 km/h (0 Bft) 0,00 %
13.09.2012 13:05 13,2 C 0,0 C 0,0 C 75 % 1014,5 hPa 0,0 l/m 0,0 km/h (0 Bft) S-SO 150 0 min 0,000 mm 0 W/m 8,9 C 13,2 C 0,0 km/h (0 Bft) 0,00 %
13.09.2012 13:10 13,0 C 0,0 C 0,0 C 76 % 1014,5 hPa 0,0 l/m 0,0 km/h (0 Bft) W 260 0 min 0,000 mm 0 W/m 8,9 C 13,0 C 0,0 km/h (0 Bft) 0,00 %
13.09.2012 13:15 13,3 C 0,0 C 0,0 C 75 % 1014,5 hPa 0,0 l/m 1,2 km/h (1 Bft) S 190 0 min 0,000 mm 0 W/m 9,0 C 13,3 C 1,2 km/h (1 Bft) 0,00 %
13.09.2012 13:20 13,2 C 0,0 C 0,0 C 74 % 1015,5 hPa 0,0 l/m 4,2 km/h (1 Bft) S 175 0 min 0,000 mm 0 W/m 8,7 C 13,2 C 4,2 km/h (1 Bft) 0,00 %
13.09.2012 13:25 13,6 C 0,0 C 0,0 C 75 % 1015,5 hPa 0,0 l/m 0,0 km/h (0 Bft) S-SW 200 0 min 0,000 mm 0 W/m 9,3 C 13,6 C 0,0 km/h (0 Bft) 0,00 %
13.09.2012 13:30 14,1 C 0,0 C 0,0 C 73 % 1015,5 hPa 0,0 l/m 0,0 km/h (0 Bft) S 175 0 min 0,000 mm 0 W/m 9,3 C 14,1 C 0,0 km/h (0 Bft) 0,00 %
13.09.2012 13:35 13,9 C 0,0 C 0,0 C 73 % 1015,5 hPa 0,0 l/m 7,3 km/h (2 Bft) W-NW 285 0 min 0,000 mm 0 W/m 9,1 C 13,9 C 7,3 km/h (2 Bft) 0,00 %
13.09.2012 13:40 14,0 C 0,0 C 0,0 C 72 % 1015,5 hPa 0,0 l/m 0,0 km/h (0 Bft) SW 230 0 min 0,000 mm 0 W/m 9,0 C 14,0 C 0,0 km/h (0 Bft) 0,00 %
13.09.2012 13:45 14,2 C 0,0 C 0,0 C 72 % 1015,5 hPa 0,0 l/m 0,0 km/h (0 Bft) S-SO 160 0 min 0,000 mm 0 W/m 9,2 C 14,2 C 0,0 km/h (0 Bft) 0,00 %
13.09.2012 13:50 14,4 C 0,0 C 0,0 C 71 % 1015,5 hPa 0,0 l/m 0,0 km/h (0 Bft) W 260 0 min 0,000 mm 0 W/m 9,2 C 14,4 C 0,0 km/h (0 Bft) 0,00 %
13.09.2012 13:55 14,6 C 0,0 C 0,0 C 71 % 1015,5 hPa 0,0 l/m 8,5 km/h (2 Bft) SW 230 0 min 0,000 mm 0 W/m 9,4 C 14,6 C 8,5 km/h (2 Bft) 0,00 %
13.09.2012 14:00 14,3 C 0,0 C 0,0 C 70 % 1015,5 hPa 0,0 l/m 4,5 km/h (1 Bft) S 175 0 min 0,000 mm 0 W/m 8,9 C 14,3 C 4,5 km/h (1 Bft) 0,00 %
13.09.2012 14:05 14,3 C 0,0 C 0,0 C 70 % 1015,5 hPa 0,0 l/m 2,7 km/h (1 Bft) SO 125 0 min 0,000 mm 0 W/m 8,9 C 14,3 C 2,7 km/h (1 Bft) 0,00 %
13.09.2012 14:10 14,3 C 0,0 C 0,0 C 71 % 1015,5 hPa 0,0 l/m 4,8 km/h (1 Bft) S-SO 160 0 min 0,000 mm 0 W/m 9,1 C 14,3 C 4,8 km/h (1 Bft) 0,00 %
13.09.2012 14:15 14,3 C 0,0 C 0,0 C 70 % 1015,5 hPa 0,0 l/m 3,9 km/h (1 Bft) SO 145 0 min 0,000 mm 0 W/m 8,9 C 14,3 C 3,9 km/h (1 Bft) 0,00 %
13.09.2012 14:20 14,0 C 0,0 C 0,0 C 72 % 1015,5 hPa 0,0 l/m 3,6 km/h (1 Bft) SW 220 0 min 0,000 mm 0 W/m 9,0 C 14,0 C 3,6 km/h (1 Bft) 0,00 %
13.09.2012 14:25 14,1 C 0,0 C 0,0 C 72 % 1015,5 hPa 0,0 l/m 5,7 km/h (1 Bft) SW 225 0 min 0,000 mm 0 W/m 9,1 C 14,1 C 5,7 km/h (1 Bft) 0,00 %
13.09.2012 14:30 14,2 C 0,0 C 0,0 C 71 % 1015,5 hPa 0,0 l/m 0,0 km/h (0 Bft) SO 140 0 min 0,000 mm 0 W/m 9,0 C 14,2 C 0,0 km/h (0 Bft) 0,00 %
13.09.2012 14:35 14,3 C 0,0 C 0,0 C 71 % 1015,5 hPa 0,0 l/m 0,0 km/h (0 Bft) W 265 0 min 0,000 mm 0 W/m 9,1 C 14,3 C 0,0 km/h (0 Bft) 0,00 %
13.09.2012 14:40 14,4 C 0,0 C 0,0 C 71 % 1015,5 hPa 0,0 l/m 0,0 km/h (0 Bft) W-SW 240 0 min 0,000 mm 0 W/m 9,2 C 14,4 C 0,0 km/h (0 Bft) 0,00 %
13.09.2012 14:45 14,2 C 0,0 C 0,0 C 70 % 1015,5 hPa 0,0 l/m 0,0 km/h (0 Bft) W-NW 290 0 min 0,000 mm 0 W/m 8,8 C 14,2 C 0,0 km/h (0 Bft) 0,00 %
13.09.2012 14:50 13,9 C 0,0 C 0,0 C 70 % 1015,5 hPa 0,0 l/m 0,0 km/h (0 Bft) SW 220 0 min 0,000 mm 0 W/m 8,5 C 13,9 C 0,0 km/h (0 Bft) 0,00 %
13.09.2012 14:55 14,1 C 0,0 C 0,0 C 71 % 1015,5 hPa 0,0 l/m 0,0 km/h (0 Bft) W-NW 290 0 min 0,000 mm 0 W/m 8,9 C 14,1 C 0,0 km/h (0 Bft) 0,00 %
13.09.2012 15:00 14,1 C 0,0 C 0,0 C 70 % 1015,5 hPa 0,0 l/m 0,0 km/h (0 Bft) W-NW 285 0 min 0,000 mm 0 W/m 8,7 C 14,1 C 0,0 km/h (0 Bft) 0,00 %
13.09.2012 15:05 13,9 C 0,0 C 0,0 C 70 % 1015,5 hPa 0,0 l/m 0,0 km/h (0 Bft) W 260 0 min 0,000 mm 0 W/m 8,5 C 13,9 C 0,0 km/h (0 Bft) 0,00 %
13.09.2012 15:10 13,8 C 0,0 C 0,0 C 71 % 1015,5 hPa 0,0 l/m 0,0 km/h (0 Bft) W-NW 290 0 min 0,000 mm 0 W/m 8,6 C 13,8 C 0,0 km/h (0 Bft) 0,00 %
13.09.2012 15:15 13,6 C 0,0 C 0,0 C 72 % 1015,5 hPa 0,0 l/m 0,0 km/h (0 Bft) W-SW 250 0 min 0,000 mm 0 W/m 8,6 C 13,6 C 0,0 km/h (0 Bft) 0,00 %
13.09.2012 15:20 13,6 C 0,0 C 0,0 C 72 % 1015,5 hPa 0,0 l/m 0,0 km/h (0 Bft) S-SW 210 0 min 0,000 mm 0 W/m 8,6 C 13,6 C 0,0 km/h (0 Bft) 0,00 %
13.09.2012 15:25 13,6 C 0,0 C 0,0 C 72 % 1015,5 hPa 0,0 l/m 0,0 km/h (0 Bft) S-SW 205 0 min 0,000 mm 0 W/m 8,6 C 13,6 C 0,0 km/h (0 Bft) 0,00 %
13.09.2012 15:30 13,6 C 0,0 C 0,0 C 72 % 1015,5 hPa 0,0 l/m 0,0 km/h (0 Bft) W 280 0 min 0,000 mm 0 W/m 8,6 C 13,6 C 0,0 km/h (0 Bft) 0,00 %
13.09.2012 15:35 13,4 C 0,0 C 0,0 C 73 % 1016,5 hPa 0,0 l/m 0,0 km/h (0 Bft) W 260 0 min 0,000 mm 0 W/m 8,7 C 13,4 C 0,0 km/h (0 Bft) 0,00 %
13.09.2012 15:40 13,4 C 0,0 C 0,0 C 74 % 1016,5 hPa 0,0 l/m 0,0 km/h (0 Bft) W-NW 300 0 min 0,000 mm 0 W/m 8,9 C 13,4 C 0,0 km/h (0 Bft) 0,00 %
13.09.2012 15:45 13,4 C 0,0 C 0,0 C 74 % 1016,5 hPa 0,0 l/m 0,0 km/h (0 Bft) W-NW 295 0 min 0,000 mm 0 W/m 8,9 C 13,4 C 0,0 km/h (0 Bft) 0,00 %
13.09.2012 15:50 13,4 C 0,0 C 0,0 C 74 % 1015,5 hPa 0,0 l/m 0,0 km/h (0 Bft) S-SW 205 0 min 0,000 mm 0 W/m 8,9 C 13,4 C 0,0 km/h (0 Bft) 0,00 %
13.09.2012 15:55 13,3 C 0,0 C 0,0 C 74 % 1015,5 hPa 0,0 l/m 0,0 km/h (0 Bft) S-SW 210 0 min 0,000 mm 0 W/m 8,8 C 13,3 C 0,0 km/h (0 Bft) 0,00 %
13.09.2012 16:00 13,4 C 0,0 C 0,0 C 74 % 1015,5 hPa 0,0 l/m 0,0 km/h (0 Bft) W-SW 245 0 min 0,000 mm 0 W/m 8,9 C 13,4 C 0,0 km/h (0 Bft) 0,00 %
13.09.2012 16:05 13,4 C 0,0 C 0,0 C 75 % 1015,5 hPa 0,0 l/m 0,0 km/h (0 Bft) W 270 0 min 0,000 mm 0 W/m 9,1 C 13,4 C 0,0 km/h (0 Bft) 0,00 %
13.09.2012 16:10 13,4 C 0,0 C 0,0 C 75 % 1015,5 hPa 0,0 l/m 0,0 km/h (0 Bft) SW 225 0 min 0,000 mm 0 W/m 9,1 C 13,4 C 0,0 km/h (0 Bft) 0,00 %
13.09.2012 16:15 13,5 C 0,0 C 0,0 C 74 % 1015,5 hPa 0,0 l/m 0,0 km/h (0 Bft) W-SW 255 0 min 0,000 mm 0 W/m 9,0 C 13,5 C 0,0 km/h (0 Bft) 0,00 %
13.09.2012 16:20 13,5 C 0,0 C 0,0 C 75 % 1015,5 hPa 0,0 l/m 0,0 km/h (0 Bft) S 175 0 min 0,000 mm 0 W/m 9,2 C 13,5 C 0,0 km/h (0 Bft) 0,00 %
13.09.2012 16:25 13,6 C 0,0 C 0,0 C 76 % 1015,5 hPa 0,0 l/m 0,0 km/h (0 Bft) SW 215 0 min 0,000 mm 0 W/m 9,4 C 13,6 C 0,0 km/h (0 Bft) 0,00 %
13.09.2012 16:30 13,6 C 0,0 C 0,0 C 75 % 1015,5 hPa 0,0 l/m 0,0 km/h (0 Bft) SO 135 0 min 0,000 mm 0 W/m 9,3 C 13,6 C 0,0 km/h (0 Bft) 0,00 %
13.09.2012 16:35 13,8 C 0,0 C 0,0 C 75 % 1015,5 hPa 0,0 l/m 0,0 km/h (0 Bft) W-NW 290 0 min 0,000 mm 0 W/m 9,4 C 13,8 C 0,0 km/h (0 Bft) 0,00 %
13.09.2012 16:40 14,1 C 0,0 C 0,0 C 74 % 1015,5 hPa 0,0 l/m 0,0 km/h (0 Bft) S-SO 150 0 min 0,000 mm 0 W/m 9,5 C 14,1 C 0,0 km/h (0 Bft) 0,00 %
13.09.2012 16:45 14,2 C 0,0 C 0,0 C 73 % 1015,5 hPa 0,0 l/m 0,0 km/h (0 Bft) W-SW 250 0 min 0,000 mm 0 W/m 9,4 C 14,2 C 0,0 km/h (0 Bft) 0,00 %
13.09.2012 16:50 14,0 C 0,0 C 0,0 C 73 % 1015,5 hPa 0,0 l/m 0,0 km/h (0 Bft) S 190 0 min 0,000 mm 0 W/m 9,2 C 14,0 C 0,0 km/h (0 Bft) 0,00 %
13.09.2012 16:55 14,0 C 0,0 C 0,0 C 74 % 1015,5 hPa 0,0 l/m 0,0 km/h (0 Bft) W 265 0 min 0,000 mm 0 W/m 9,4 C 14,0 C 0,0 km/h (0 Bft) 0,00 %
13.09.2012 17:00 14,2 C 0,0 C 0,0 C 74 % 1015,5 hPa 0,0 l/m 0,0 km/h (0 Bft) S-SO 160 0 min 0,000 mm 0 W/m 9,6 C 14,2 C 0,0 km/h (0 Bft) 0,00 %
13.09.2012 17:05 13,9 C 0,0 C 0,0 C 73 % 1015,5 hPa 0,0 l/m 0,0 km/h (0 Bft) SW 230 0 min 0,000 mm 0 W/m 9,1 C 13,9 C 0,0 km/h (0 Bft) 0,00 %
13.09.2012 17:10 14,1 C 0,0 C 0,0 C 73 % 1015,5 hPa 0,0 l/m 0,0 km/h (0 Bft) W 265 0 min 0,000 mm 0 W/m 9,3 C 14,1 C 0,0 km/h (0 Bft) 0,00 %
13.09.2012 17:15 14,1 C 0,0 C 0,0 C 72 % 1015,5 hPa 0,0 l/m 0,0 km/h (0 Bft) SW 220 0 min 0,000 mm 0 W/m 9,1 C 14,1 C 0,0 km/h (0 Bft) 0,00 %
13.09.2012 17:20 14,1 C 0,0 C 0,0 C 72 % 1015,5 hPa 0,0 l/m 0,0 km/h (0 Bft) S-SO 165 0 min 0,000 mm 0 W/m 9,1 C 14,1 C 0,0 km/h (0 Bft) 0,00 %
13.09.2012 17:25 14,0 C 0,0 C 0,0 C 72 % 1015,5 hPa 0,0 l/m 0,0 km/h (0 Bft) SW 235 0 min 0,000 mm 0 W/m 9,0 C 14,0 C 0,0 km/h (0 Bft) 0,00 %
13.09.2012 17:30 14,0 C 0,0 C 0,0 C 72 % 1015,5 hPa 0,0 l/m 0,0 km/h (0 Bft) NW 320 0 min 0,000 mm 0 W/m 9,0 C 14,0 C 0,0 km/h (0 Bft) 0,00 %
13.09.2012 17:35 13,9 C 0,0 C 0,0 C 73 % 1016,5 hPa 0,0 l/m 0,0 km/h (0 Bft) W-NW 290 0 min 0,000 mm 0 W/m 9,1 C 13,9 C 0,0 km/h (0 Bft) 0,00 %
13.09.2012 17:40 13,7 C 0,0 C 0,0 C 74 % 1016,5 hPa 0,0 l/m 0,0 km/h (0 Bft) W-SW 250 0 min 0,000 mm 0 W/m 9,2 C 13,7 C 0,0 km/h (0 Bft) 0,00 %
13.09.2012 17:45 13,6 C 0,0 C 0,0 C 74 % 1016,5 hPa 0,0 l/m 0,0 km/h (0 Bft) N-NW 340 0 min 0,000 mm 0 W/m 9,1 C 13,6 C 0,0 km/h (0 Bft) 0,00 %
13.09.2012 17:50 13,7 C 0,0 C 0,0 C 74 % 1016,5 hPa 0,0 l/m 0,0 km/h (0 Bft) N-NW 340 0 min 0,000 mm 0 W/m 9,2 C 13,7 C 0,0 km/h (0 Bft) 0,00 %
13.09.2012 17:55 13,7 C 0,0 C 0,0 C 74 % 1016,5 hPa 0,0 l/m 0,0 km/h (0 Bft) W-NW 300 0 min 0,000 mm 0 W/m 9,2 C 13,7 C 0,0 km/h (0 Bft) 0,00 %
13.09.2012 18:00 13,8 C 0,0 C 0,0 C 75 % 1016,5 hPa 0,0 l/m 0,0 km/h (0 Bft) N 5 0 min 0,000 mm 0 W/m 9,4 C 13,8 C 0,0 km/h (0 Bft) 0,00 %
13.09.2012 18:05 13,6 C 0,0 C 0,0 C 74 % 1016,5 hPa 0,0 l/m 0,0 km/h (0 Bft) N 350 0 min 0,000 mm 0 W/m 9,1 C 13,6 C 0,0 km/h (0 Bft) 0,00 %
13.09.2012 18:10 13,7 C 0,0 C 0,0 C 74 % 1016,5 hPa 0,0 l/m 0,0 km/h (0 Bft) W 265 0 min 0,000 mm 0 W/m 9,2 C 13,7 C 0,0 km/h (0 Bft) 0,00 %
13.09.2012 18:15 13,8 C 0,0 C 0,0 C 74 % 1016,5 hPa 0,0 l/m 0,0 km/h (0 Bft) NW 320 0 min 0,000 mm 0 W/m 9,2 C 13,8 C 0,0 km/h (0 Bft) 0,00 %
13.09.2012 18:20 13,8 C 0,0 C 0,0 C 75 % 1016,5 hPa 0,0 l/m 0,0 km/h (0 Bft) NW 310 0 min 0,000 mm 0 W/m 9,4 C 13,8 C 0,0 km/h (0 Bft) 0,00 %
13.09.2012 18:25 13,7 C 0,0 C 0,0 C 74 % 1016,5 hPa 0,0 l/m 0,0 km/h (0 Bft) W 260 0 min 0,000 mm 0 W/m 9,2 C 13,7 C 0,0 km/h (0 Bft) 0,00 %
13.09.2012 18:30 13,8 C 0,0 C 0,0 C 75 % 1016,5 hPa 0,0 l/m 0,0 km/h (0 Bft) NW 305 0 min 0,000 mm 0 W/m 9,4 C 13,8 C 0,0 km/h (0 Bft) 0,00 %
13.09.2012 18:35 13,7 C 0,0 C 0,0 C 74 % 1016,5 hPa 0,0 l/m 0,0 km/h (0 Bft) SW 225 0 min 0,000 mm 0 W/m 9,2 C 13,7 C 0,0 km/h (0 Bft) 0,00 %
13.09.2012 18:40 13,7 C 0,0 C 0,0 C 74 % 1016,5 hPa 0,0 l/m 0,0 km/h (0 Bft) W-SW 240 0 min 0,000 mm 0 W/m 9,2 C 13,7 C 0,0 km/h (0 Bft) 0,00 %
13.09.2012 18:45 13,6 C 0,0 C 0,0 C 74 % 1016,5 hPa 0,0 l/m 0,0 km/h (0 Bft) W-NW 295 0 min 0,000 mm 0 W/m 9,1 C 13,6 C 0,0 km/h (0 Bft) 0,00 %
13.09.2012 18:50 13,6 C 0,0 C 0,0 C 74 % 1016,5 hPa 0,0 l/m 0,0 km/h (0 Bft) W-SW 240 0 min 0,000 mm 0 W/m 9,1 C 13,6 C 0,0 km/h (0 Bft) 0,00 %
13.09.2012 18:55 13,7 C 0,0 C 0,0 C 74 % 1016,5 hPa 0,0 l/m 0,0 km/h (0 Bft) SW 235 0 min 0,000 mm 0 W/m 9,2 C 13,7 C 0,0 km/h (0 Bft) 0,00 %
13.09.2012 19:00 13,6 C 0,0 C 0,0 C 74 % 1016,5 hPa 0,0 l/m 0,0 km/h (0 Bft) SW 235 0 min 0,000 mm 0 W/m 9,1 C 13,6 C 0,0 km/h (0 Bft) 0,00 %
13.09.2012 19:05 13,7 C 0,0 C 0,0 C 74 % 1016,5 hPa 0,0 l/m 0,0 km/h (0 Bft) W-NW 290 0 min 0,000 mm 0 W/m 9,2 C 13,7 C 0,0 km/h (0 Bft) 0,00 %
13.09.2012 19:10 13,8 C 0,0 C 0,0 C 74 % 1016,5 hPa 0,0 l/m 0,0 km/h (0 Bft) W 275 0 min 0,000 mm 0 W/m 9,2 C 13,8 C 0,0 km/h (0 Bft) 0,00 %
13.09.2012 19:15 13,8 C 0,0 C 0,0 C 74 % 1016,5 hPa 0,0 l/m 0,0 km/h (0 Bft) S-SW 200 0 min 0,000 mm 0 W/m 9,2 C 13,8 C 0,0 km/h (0 Bft) 0,00 %
13.09.2012 19:20 13,7 C 0,0 C 0,0 C 74 % 1016,5 hPa 0,0 l/m 0,0 km/h (0 Bft) W-SW 245 0 min 0,000 mm 0 W/m 9,2 C 13,7 C 0,0 km/h (0 Bft) 0,00 %
13.09.2012 19:25 13,7 C 0,0 C 0,0 C 74 % 1016,5 hPa 0,0 l/m 0,0 km/h (0 Bft) SW 215 0 min 0,000 mm 0 W/m 9,2 C 13,7 C 0,0 km/h (0 Bft) 0,00 %
13.09.2012 19:30 13,5 C 0,0 C 0,0 C 75 % 1016,5 hPa 0,0 l/m 0,0 km/h (0 Bft) SW 235 0 min 0,000 mm 0 W/m 9,2 C 13,5 C 0,0 km/h (0 Bft) 0,00 %
13.09.2012 19:35 13,4 C 0,0 C 0,0 C 75 % 1016,5 hPa 0,0 l/m 0,0 km/h (0 Bft) W-NW 295 0 min 0,000 mm 0 W/m 9,1 C 13,4 C 0,0 km/h (0 Bft) 0,00 %
13.09.2012 19:40 13,3 C 0,0 C 0,0 C 75 % 1016,5 hPa 0,0 l/m 0,0 km/h (0 Bft) W 280 0 min 0,000 mm 0 W/m 9,0 C 13,3 C 0,0 km/h (0 Bft) 0,00 %
13.09.2012 19:45 13,1 C 0,0 C 0,0 C 76 % 1016,5 hPa 0,0 l/m 0,0 km/h (0 Bft) W-SW 245 0 min 0,000 mm 0 W/m 9,0 C 13,1 C 0,0 km/h (0 Bft) 0,00 %
13.09.2012 19:50 13,0 C 0,0 C 0,0 C 76 % 1017,5 hPa 0,0 l/m 0,0 km/h (0 Bft) W-NW 290 0 min 0,000 mm 0 W/m 8,9 C 13,0 C 0,0 km/h (0 Bft) 0,00 %
13.09.2012 19:55 12,8 C 0,0 C 0,0 C 78 % 1017,5 hPa 0,0 l/m 0,0 km/h (0 Bft) N-NW 335 0 min 0,000 mm 0 W/m 9,1 C 12,8 C 0,0 km/h (0 Bft) 0,00 %
13.09.2012 20:00 12,6 C 0,0 C 0,0 C 78 % 1017,5 hPa 0,0 l/m 0,0 km/h (0 Bft) W-NW 300 0 min 0,000 mm 0 W/m 8,9 C 12,6 C 0,0 km/h (0 Bft) 0,00 %
13.09.2012 20:05 12,5 C 0,0 C 0,0 C 78 % 1016,5 hPa 0,0 l/m 0,0 km/h (0 Bft) W-NW 290 0 min 0,000 mm 0 W/m 8,8 C 12,5 C 0,0 km/h (0 Bft) 0,00 %
13.09.2012 20:10 12,3 C 0,0 C 0,0 C 79 % 1016,5 hPa 0,0 l/m 0,0 km/h (0 Bft) NW 320 0 min 0,000 mm 0 W/m 8,8 C 12,3 C 0,0 km/h (0 Bft) 0,00 %
13.09.2012 20:15 12,1 C 0,0 C 0,0 C 80 % 1016,5 hPa 0,0 l/m 0,0 km/h (0 Bft) NW 315 0 min 0,000 mm 0 W/m 8,8 C 12,1 C 0,0 km/h (0 Bft) 0,00 %
13.09.2012 20:20 11,9 C 0,0 C 0,0 C 80 % 1016,5 hPa 0,0 l/m 0,0 km/h (0 Bft) W-NW 285 0 min 0,000 mm 0 W/m 8,6 C 11,9 C 0,0 km/h (0 Bft) 0,00 %
13.09.2012 20:25 11,9 C 0,0 C 0,0 C 80 % 1016,5 hPa 0,0 l/m 0,0 km/h (0 Bft) W 280 0 min 0,000 mm 0 W/m 8,6 C 11,9 C 0,0 km/h (0 Bft) 0,00 %
13.09.2012 20:30 11,8 C 0,0 C 0,0 C 80 % 1016,5 hPa 0,0 l/m 0,0 km/h (0 Bft) W-SW 250 0 min 0,000 mm 0 W/m 8,5 C 11,8 C 0,0 km/h (0 Bft) 0,00 %
13.09.2012 20:35 11,6 C 0,0 C 0,0 C 80 % 1017,5 hPa 0,0 l/m 0,0 km/h (0 Bft) W-SW 250 0 min 0,000 mm 0 W/m 8,3 C 11,6 C 0,0 km/h (0 Bft) 0,00 %
13.09.2012 20:40 11,5 C 0,0 C 0,0 C 81 % 1017,5 hPa 0,0 l/m 0,0 km/h (0 Bft) W-SW 255 0 min 0,000 mm 0 W/m 8,4 C 11,5 C 0,0 km/h (0 Bft) 0,00 %
13.09.2012 20:45 11,3 C 0,0 C 0,0 C 81 % 1017,5 hPa 0,0 l/m 0,0 km/h (0 Bft) NW 305 0 min 0,000 mm 0 W/m 8,2 C 11,3 C 0,0 km/h (0 Bft) 0,00 %
13.09.2012 20:50 11,2 C 0,0 C 0,0 C 81 % 1017,5 hPa 0,0 l/m 0,0 km/h (0 Bft) N-NW 335 0 min 0,000 mm 0 W/m 8,1 C 11,2 C 0,0 km/h (0 Bft) 0,00 %
13.09.2012 20:55 11,0 C 0,0 C 0,0 C 81 % 1017,5 hPa 0,0 l/m 0,0 km/h (0 Bft) N-NW 335 0 min 0,000 mm 0 W/m 7,9 C 11,0 C 0,0 km/h (0 Bft) 0,00 %
13.09.2012 21:00 10,8 C 0,0 C 0,0 C 82 % 1017,5 hPa 0,0 l/m 0,0 km/h (0 Bft) N-NW 330 0 min 0,000 mm 0 W/m 7,9 C 10,8 C 0,0 km/h (0 Bft) 0,00 %
13.09.2012 21:05 10,8 C 0,0 C 0,0 C 82 % 1017,5 hPa 0,0 l/m 0,0 km/h (0 Bft) N-NW 330 0 min 0,000 mm 0 W/m 7,9 C 10,8 C 0,0 km/h (0 Bft) 0,00 %
13.09.2012 21:10 10,6 C 0,0 C 0,0 C 83 % 1017,5 hPa 0,0 l/m 0,0 km/h (0 Bft) N-NW 345 0 min 0,000 mm 0 W/m 7,8 C 10,6 C 0,0 km/h (0 Bft) 0,00 %
13.09.2012 21:15 10,6 C 0,0 C 0,0 C 84 % 1017,5 hPa 0,0 l/m 0,0 km/h (0 Bft) N-NW 340 0 min 0,000 mm 0 W/m 8,0 C 10,6 C 0,0 km/h (0 Bft) 0,00 %
13.09.2012 21:20 10,4 C 0,0 C 0,0 C 84 % 1017,5 hPa 0,0 l/m 0,0 km/h (0 Bft) N-NO 20 0 min 0,000 mm 0 W/m 7,8 C 10,4 C 0,0 km/h (0 Bft) 0,00 %
13.09.2012 21:25 10,4 C 0,0 C 0,0 C 84 % 1017,5 hPa 0,0 l/m 0,0 km/h (0 Bft) O-NO 60 0 min 0,000 mm 0 W/m 7,8 C 10,4 C 0,0 km/h (0 Bft) 0,00 %
13.09.2012 21:30 10,4 C 0,0 C 0,0 C 85 % 1017,5 hPa 0,0 l/m 0,0 km/h (0 Bft) O 80 0 min 0,000 mm 0 W/m 8,0 C 10,4 C 0,0 km/h (0 Bft) 0,00 %
13.09.2012 21:35 10,3 C 0,0 C 0,0 C 85 % 1017,5 hPa 0,0 l/m 0,0 km/h (0 Bft) N-NO 15 0 min 0,000 mm 0 W/m 7,9 C 10,3 C 0,0 km/h (0 Bft) 0,00 %
13.09.2012 21:40 10,3 C 0,0 C 0,0 C 85 % 1017,5 hPa 0,0 l/m 0,0 km/h (0 Bft) N-NO 15 0 min 0,000 mm 0 W/m 7,9 C 10,3 C 0,0 km/h (0 Bft) 0,00 %
13.09.2012 21:45 10,2 C 0,0 C 0,0 C 85 % 1017,5 hPa 0,0 l/m 0,0 km/h (0 Bft) N-NO 20 0 min 0,000 mm 0 W/m 7,8 C 10,2 C 0,0 km/h (0 Bft) 0,00 %
13.09.2012 21:50 10,1 C 0,0 C 0,0 C 85 % 1017,5 hPa 0,0 l/m 0,0 km/h (0 Bft) N-NW 330 0 min 0,000 mm 0 W/m 7,7 C 10,1 C 0,0 km/h (0 Bft) 0,00 %
13.09.2012 21:55 10,0 C 0,0 C 0,0 C 85 % 1017,5 hPa 0,0 l/m 0,0 km/h (0 Bft) N-NW 340 0 min 0,000 mm 0 W/m 7,6 C 10,0 C 0,0 km/h (0 Bft) 0,00 %
13.09.2012 22:00 9,9 C 0,0 C 0,0 C 85 % 1017,5 hPa 0,0 l/m 0,0 km/h (0 Bft) N-NW 340 0 min 0,000 mm 0 W/m 7,5 C 9,9 C 0,0 km/h (0 Bft) 0,00 %
13.09.2012 22:05 9,8 C 0,0 C 0,0 C 86 % 1017,5 hPa 0,0 l/m 0,0 km/h (0 Bft) NO 45 0 min 0,000 mm 0 W/m 7,6 C 9,8 C 0,0 km/h (0 Bft) 0,00 %
13.09.2012 22:10 9,8 C 0,0 C 0,0 C 86 % 1017,5 hPa 0,0 l/m 0,0 km/h (0 Bft) O 85 0 min 0,000 mm 0 W/m 7,6 C 9,8 C 0,0 km/h (0 Bft) 0,00 %
13.09.2012 22:15 9,7 C 0,0 C 0,0 C 86 % 1017,5 hPa 0,0 l/m 0,0 km/h (0 Bft) NO 45 0 min 0,000 mm 0 W/m 7,5 C 9,7 C 0,0 km/h (0 Bft) 0,00 %
13.09.2012 22:20 9,6 C 0,0 C 0,0 C 86 % 1018,5 hPa 0,0 l/m 0,0 km/h (0 Bft) NO 55 0 min 0,000 mm 0 W/m 7,4 C 9,6 C 0,0 km/h (0 Bft) 0,00 %
13.09.2012 22:25 9,4 C 0,0 C 0,0 C 86 % 1018,5 hPa 0,0 l/m 0,0 km/h (0 Bft) NO 55 0 min 0,000 mm 0 W/m 7,2 C 9,4 C 0,0 km/h (0 Bft) 0,00 %
13.09.2012 22:30 9,3 C 0,0 C 0,0 C 86 % 1018,5 hPa 0,0 l/m 0,0 km/h (0 Bft) N-NW 335 0 min 0,000 mm 0 W/m 7,1 C 9,3 C 0,0 km/h (0 Bft) 0,00 %
13.09.2012 22:35 9,1 C 0,0 C 0,0 C 87 % 1017,5 hPa 0,0 l/m 0,0 km/h (0 Bft) N-NW 335 0 min 0,000 mm 0 W/m 7,1 C 9,1 C 0,0 km/h (0 Bft) 0,00 %
13.09.2012 22:40 8,9 C 0,0 C 0,0 C 87 % 1017,5 hPa 0,0 l/m 0,0 km/h (0 Bft) W 260 0 min 0,000 mm 0 W/m 6,9 C 8,9 C 0,0 km/h (0 Bft) 0,00 %
13.09.2012 22:45 8,7 C 0,0 C 0,0 C 87 % 1017,5 hPa 0,0 l/m 0,0 km/h (0 Bft) N-NW 340 0 min 0,000 mm 0 W/m 6,7 C 8,7 C 0,0 km/h (0 Bft) 0,00 %
13.09.2012 22:50 8,6 C 0,0 C 0,0 C 87 % 1017,5 hPa 0,0 l/m 0,0 km/h (0 Bft) W-NW 290 0 min 0,000 mm 0 W/m 6,6 C 8,6 C 0,0 km/h (0 Bft) 0,00 %
13.09.2012 22:55 8,4 C 0,0 C 0,0 C 87 % 1017,5 hPa 0,0 l/m 0,0 km/h (0 Bft) NW 305 0 min 0,000 mm 0 W/m 6,4 C 8,4 C 0,0 km/h (0 Bft) 0,00 %
13.09.2012 23:00 8,0 C 0,0 C 0,0 C 87 % 1017,5 hPa 0,0 l/m 0,0 km/h (0 Bft) W-NW 300 0 min 0,000 mm 0 W/m 6,0 C 8,0 C 0,0 km/h (0 Bft) 0,00 %
13.09.2012 23:05 7,9 C 0,0 C 0,0 C 87 % 1017,5 hPa 0,0 l/m 0,0 km/h (0 Bft) W-NW 300 0 min 0,000 mm 0 W/m 5,9 C 7,9 C 0,0 km/h (0 Bft) 0,00 %
13.09.2012 23:10 8,2 C 0,0 C 0,0 C 87 % 1017,5 hPa 0,0 l/m 0,0 km/h (0 Bft) N-NO 15 0 min 0,000 mm 0 W/m 6,2 C 8,2 C 0,0 km/h (0 Bft) 0,00 %
13.09.2012 23:15 8,0 C 0,0 C 0,0 C 87 % 1017,5 hPa 0,0 l/m 0,0 km/h (0 Bft) N-NO 15 0 min 0,000 mm 0 W/m 6,0 C 8,0 C 0,0 km/h (0 Bft) 0,00 %
13.09.2012 23:20 8,2 C 0,0 C 0,0 C 87 % 1017,5 hPa 0,0 l/m 0,0 km/h (0 Bft) NW 320 0 min 0,000 mm 0 W/m 6,2 C 8,2 C 0,0 km/h (0 Bft) 0,00 %
13.09.2012 23:25 8,3 C 0,0 C 0,0 C 87 % 1017,5 hPa 0,0 l/m 0,0 km/h (0 Bft) N 0 0 min 0,000 mm 0 W/m 6,3 C 8,3 C 0,0 km/h (0 Bft) 0,00 %
13.09.2012 23:30 8,1 C 0,0 C 0,0 C 87 % 1017,5 hPa 0,0 l/m 0,0 km/h (0 Bft) N-NO 20 0 min 0,000 mm 0 W/m 6,1 C 8,1 C 0,0 km/h (0 Bft) 0,00 %
13.09.2012 23:35 8,2 C 0,0 C 0,0 C 88 % 1018,5 hPa 0,0 l/m 0,0 km/h (0 Bft) NO 40 0 min 0,000 mm 0 W/m 6,3 C 8,2 C 0,0 km/h (0 Bft) 0,00 %
13.09.2012 23:40 8,3 C 0,0 C 0,0 C 88 % 1018,5 hPa 0,0 l/m 0,0 km/h (0 Bft) O-NO 75 0 min 0,000 mm 0 W/m 6,4 C 8,3 C 0,0 km/h (0 Bft) 0,00 %
13.09.2012 23:45 8,5 C 0,0 C 0,0 C 88 % 1018,5 hPa 0,0 l/m 0,0 km/h (0 Bft) NO 55 0 min 0,000 mm 0 W/m 6,6 C 8,5 C 0,0 km/h (0 Bft) 0,00 %
13.09.2012 23:50 8,5 C 0,0 C 0,0 C 88 % 1017,5 hPa 0,0 l/m 0,0 km/h (0 Bft) O-NO 70 0 min 0,000 mm 0 W/m 6,6 C 8,5 C 0,0 km/h (0 Bft) 0,00 %
13.09.2012 23:55 8,2 C 0,0 C 0,0 C 88 % 1017,5 hPa 0,0 l/m 0,0 km/h (0 Bft) W-NW 285 0 min 0,000 mm 0 W/m 6,3 C 8,2 C 0,0 km/h (0 Bft) 0,00 %
_ Min-Zeit 00:25 00:00 00:00 14:00 03:50 - 00:00 - - - - - 00:25 00:25 00:00 00:00
Minimum _ 5,4 C 0,0 C 0,0 C 70 % 1012,5 hPa - 0,0 km/h (0 Bft) - - - - - 3,6 C 5,4 C 0,0 km/h (0 Bft) 0,00 %
_ Max-Zeit 13:55 00:00 00:00 02:10 22:20 00:00 13:55 - - 00:00 00:00 00:00 12:40 13:55 13:55 00:00
Maximum _ 14,6 C 0,0 C 0,0 C 89 % 1018,5 hPa 0,0 l/m 8,5 km/h
SW (2 Bft)
- - 0 min 0,000 mm 0 W/m 9,7 C 14,6 C 8,5 km/h
SW (2 Bft)
0,00 %
Durchschnitt _ 10,0 C 0,0 C 0,0 C 82 % 1014,9 hPa #0,0 l/m 0,3 km/h (0 Bft) S - #0 min. #0,000 mm 0 W/m 7,1 C 10,0 C 0,3 km/h (0 Bft) 0,00 %
Wetterstation Gdesweiler